Weather in Resistencia

Argentina     27°27′43″S   58°58′58″W
temp.,
°C
wind,
m/s
gust,
m/s
humid.,
%
clouds,
%
prec.,
mm/h
press.,
hPa
HPBL,
m
10 may, mon
mon1000:00+16sse24840 0.0 1019106
03:00+15sse24870 0.0 101883
06:00+15sse2584100 0.0 1019131
09:00+16s2774100 0.0 1021291
12:00+17sse3880100 0.1 1021387
15:00+18s4674100 0.1 1019543
18:00+16ssw3872100 0.0 1019515
21:00+15s3978100 0.0 1021462
11 may, tue
tue1100:00+15s2982100 0.0 1021396
03:00+14s3986100 0.0 1020418
06:00+14s3987100 0.1 1020520
09:00+14s3881100 0.1 1022475
12:00+14sse3676100 0.0 1022438
15:00+15sse2672100 0.0 1020627
18:00+15sse2674100 0.0 1019391
21:00+13s266982 0.0 1021249
12 may, wed
wed1200:00+13s27559 0.0 1021308
03:00+10s26675 0.0 1021148
06:00+9s26734 0.0 1021148
09:00+11sse25640 0.0 1023215
12:00+18se23420 0.0 1022786
15:00+20sse22350 0.0 10201191
18:00+16ese23540 0.0 101939
21:00+13e23620 0.0 102043
13 may, thu
thu1300:00+11e12670 0.0 102122
03:00+10ese23691 0.0 102060
06:00+9e237147 0.0 102050
09:00+11ese2460100 0.0 1021158
12:00+19e234032 0.0 1021614
15:00+22e223674 0.0 10191005
18:00+17se3557100 0.0 101999
21:00+16ese3856100 0.0 1019200
14 may, fri
fri1400:00+15sse2257100 0.0 102044
03:00+15ssw115992 0.0 102023
06:00+14ese236191 0.0 101969
09:00+15ese12585 0.0 1021137
12:00+22e22401 0.0 1020665
15:00+24se11380 0.0 10181045
18:00+19se24570 0.0 101778
21:00+17ese24650 0.0 101876